This demonstration page uses our WeatherBlox Daily Observations layout. Learn more.

41.55636, -103.73856

Hourly Observations for September 1, 2017

Temp ( °F °C ) Dew Point ( °F °C ) Humidity (%) Winds ( mph kmh ) Pressure ( in mb ) Visibility ( mi km ) Precip ( " mm )
12:53 am 00:53 Clear with Light Rain 63 17.2 56 13.3 78 78 ENE 6 9 29.88 1012 10 16.0934 0 0.0254
1:53 am 01:53 Clear 66 18.9 55 12.8 68 68 Calm 29.87 1011 10 16.0934 0 0.0254
2:53 am 02:53 Partly Cloudy 68 20 55 12.8 63 63 S 8 13 29.85 1011 10 16.0934 0 0
3:53 am 03:53 Partly Cloudy 69 20.6 54 12.2 59 59 S 7 11 29.84 1011 10 16.0934 0 0
4:53 am 04:53 Clear 63 17.2 57 13.9 81 81 NNE 6 9 29.86 1011 10 16.0934 0 0
5:53 am 05:53 Partly Cloudy 64 17.8 56 13.3 75 75 N 7 11 29.88 1012 10 16.0934 0 0
6:53 am 06:53 Mostly Cloudy 63 17.2 56 13.3 78 78 WNW 7 11 29.92 1013 10 16.0934 0 0
7:53 am 07:53 Mostly Cloudy 64 17.8 57 13.9 78 78 WNW 6 9 29.94 1014 10 16.0934 0 0
8:53 am 08:53 Sunny 70 21.1 56 13.3 61 61 WNW 10 17 29.94 1014 10 16.0934 0 0
9:53 am 09:53 Sunny 74 23.3 55 12.8 52 52 WNW 12 19 29.96 1014 10 16.0934 0 0
10:53 am 10:53 Sunny 80 26.7 55 12.8 42 42 WNW 12 19 29.95 1014 10 16.0934 0 0
11:53 am 11:53 Sunny 84 28.9 51 10.6 32 32 WNW 13 20 29.95 1014 10 16.0934 0 0
12:53 pm 12:53 Sunny 86 30 50 10 29 29 WNW 9 15 29.93 1014 10 16.0934 0 0
1:53 pm 13:53 Sunny 90 32.2 47 8.3 23 23 W 12 19 29.91 1013 10 16.0934 0 0
2:53 pm 14:53 Sunny 91 32.8 42 5.6 18 18 WNW 15 24 29.89 1012 8 12.87472 0 0
3:53 pm 15:53 Sunny 91 32.8 43 6.1 19 19 NW 12 19 29.88 1012 7 11.26538 0 0
4:53 pm 16:53 Hazy 90 32.2 41 5 18 18 NW 12 19 29.9 1013 6 9.65604 0 0
5:53 pm 17:53 Hazy 87 30.6 39 3.9 18 18 NNW 9 15 29.91 1013 5 8.0467 0 0
6:53 pm 18:53 Hazy 82 27.8 39 3.9 22 22 N 9 15 29.93 1014 4 6.43736 0 0
7:53 pm 19:53 Hazy 72 22.2 43 6.1 35 35 N 8 13 29.96 1015 5 8.0467 0 0
8:53 pm 20:53 Hazy 69 20.6 41 5 36 36 NNE 13 20 29.98 1015 5 8.0467 0 0
9:53 pm 21:53 Hazy 67 19.4 42 5.6 41 41 NNE 7 11 29.99 1016 6 9.65604 0 0
10:53 pm 22:53 Hazy 63 17.2 44 6.7 50 50 NW 3 6 30.01 1016 6 9.65604 0 0
11:53 pm 23:53 Hazy 62 16.7 45 7.2 54 54 NNW 3 6 30.01 1016 6 9.65604 0 0

Powered by AerisWeather